QPF
0.00 0.01 0.03 0.04 0.03 0.02 0.03 0.05 0.06 0.03 0.03 0.03 0.04 0.05 0.04 0.03 0.02 0.03 0.05 0.05 0.05 0.05 0.03 0.03 0.02 0.02 0.01 0.02 0.03 0.03 0.03 0.03 0.02 0.02 0.02 0.03 0.03 0.02 0.01 0.01 0.01 0.00 0.01
0.00 0.01 0.03 0.05 0.05 0.03 0.03 0.03 0.04 0.04 0.03 0.02 0.03 0.05 0.04 0.03 0.03 0.03 0.04 0.04 0.04 0.05 0.04 0.04 0.03 0.03 0.02 0.02 0.02 0.02 0.02 0.02 0.01 0.01 0.01 0.01 0.02 0.02 0.01 0.01 0.01 0.01 0.00
0.00 0.01 0.03 0.05 0.06 0.04 0.03 0.03 0.04 0.04 0.03 0.02 0.02 0.04 0.05 0.05 0.04 0.04 0.04 0.04 0.04 0.04 0.04 0.05 0.03 0.03 0.03 0.02 0.01 0.01 0.01 0.01 0.01 0.00 0.00 0.00 0.01 0.02 0.02 0.01 0.02 0.01 0.01
0.01 0.01 0.03 0.06 0.09 0.07 0.05 0.04 0.05 0.04 0.03 0.03 0.02 0.03 0.05 0.06 0.05 0.05 0.06 0.05 0.05 0.04 0.04 0.05 0.03 0.02 0.02 0.02 0.01 0.01 0.01 0.01 0.01 0.00 0.00 0.00 0.01 0.02 0.02 0.01 0.02 0.02 0.01
0.01 0.02 0.04 0.08 0.09 0.09 0.07 0.05 0.06 0.05 0.04 0.03 0.04 0.03 0.03 0.06 0.07 0.05 0.05 0.06 0.06 0.05 0.04 0.04 0.03 0.02 0.02 0.01 0.01 0.01 0.01 0.01 0.01 0.00 0.00 0.00 0.01 0.03 0.03 0.02 0.02 0.03 0.02
0.02 0.03 0.04 0.08 0.09 0.08 0.07 0.05 0.07 0.07 0.05 0.06 0.06 0.04 0.03 0.04 0.07 0.06 0.05 0.06 0.07 0.06 0.07 0.04 0.03 0.02 0.02 0.01 0.01 0.01 0.01 0.01 0.00 0.00 0.00 0.01 0.01 0.03 0.03 0.02 0.02 0.03 0.03
0.03 0.04 0.04 0.07 0.07 0.06 0.08 0.08 0.08 0.09 0.08 0.07 0.07 0.05 0.04 0.04 0.05 0.06 0.06 0.05 0.05 0.05 0.06 0.05 0.03 0.03 0.03 0.02 0.01 0.01 0.01 0.00 0.00 0.00 0.01 0.01 0.02 0.03 0.03 0.03 0.03 0.03 0.02
0.03 0.04 0.04 0.05 0.06 0.06 0.08 0.10 0.10 0.11 0.10 0.09 0.07 0.06 0.04 0.05 0.05 0.06 0.06 0.06 0.05 0.05 0.07 0.06 0.05 0.04 0.04 0.03 0.02 0.02 0.01 0.00 0.00 0.00 0.01 0.01 0.03 0.03 0.03 0.01 0.01 0.02 0.02
0.02 0.03 0.04 0.05 0.05 0.06 0.07 0.09 0.11 0.11 0.11 0.11 0.08 0.08 0.06 0.06 0.07 0.07 0.07 0.07 0.06 0.07 0.09 0.07 0.06 0.06 0.04 0.03 0.02 0.01 0.01 0.00 0.00 0.00 0.01 0.01 0.02 0.03 0.01 0.01 0.01 0.02 0.01
0.03 0.04 0.05 0.06 0.07 0.08 0.08 0.09 0.10 0.11 0.11 0.10 0.08 0.07 0.07 0.06 0.06 0.07 0.08 0.08 0.08 0.07 0.07 0.06 0.05 0.06 0.04 0.03 0.02 0.01 0.01 0.01 0.00 0.00 0.01 0.02 0.02 0.02 0.02 0.01 0.01 0.02 0.01
0.03 0.03 0.06 0.12 0.10 0.11 0.11 0.10 0.11 0.12 0.11 0.09 0.07 0.05 0.06 0.06 0.06 0.07 0.08 0.09 0.10 0.06 0.05 0.05 0.04 0.05 0.04 0.02 0.02 0.02 0.01 0.00 0.00 0.00 0.01 0.02 0.02 0.02 0.03 0.03 0.02 0.02 0.01
0.03 0.02 0.03 0.08 0.15 0.13 0.13 0.12 0.11 0.11 0.11 0.10 0.07 0.06 0.06 0.05 0.06 0.08 0.09 0.11 0.12 0.09 0.06 0.05 0.04 0.04 0.03 0.02 0.02 0.03 0.02 0.01 0.00 0.01 0.01 0.01 0.02 0.03 0.02 0.03 0.02 0.02 0.02
0.06 0.03 0.03 0.06 0.13 0.17 0.15 0.13 0.13 0.12 0.13 0.11 0.09 0.08 0.06 0.05 0.06 0.08 0.09 0.09 0.08 0.09 0.06 0.05 0.04 0.03 0.02 0.02 0.02 0.03 0.03 0.02 0.01 0.01 0.02 0.01 0.02 0.02 0.02 0.04 0.03 0.02 0.02
0.07 0.07 0.05 0.04 0.09 0.16 0.20 0.17 0.17 0.17 0.15 0.14 0.11 0.09 0.06 0.05 0.06 0.07 0.07 0.07 0.06 0.06 0.06 0.04 0.03 0.02 0.02 0.02 0.01 0.02 0.02 0.03 0.01 0.01 0.02 0.02 0.01 0.02 0.03 0.05 0.04 0.02 0.02
0.07 0.07 0.06 0.04 0.05 0.12 0.20 0.21 0.20 0.23 0.20 0.18 0.15 0.12 0.08 0.06 0.06 0.06 0.06 0.05 0.05 0.05 0.04 0.03 0.03 0.02 0.01 0.02 0.02 0.02 0.02 0.03 0.02 0.01 0.02 0.02 0.01 0.02 0.04 0.05 0.04 0.03 0.02
0.06 0.06 0.05 0.03 0.03 0.07 0.17 0.22 0.18 0.16 0.16 0.17 0.15 0.12 0.10 0.09 0.07 0.06 0.05 0.04 0.04 0.05 0.04 0.02 0.02 0.02 0.02 0.02 0.01 0.01 0.02 0.03 0.03 0.02 0.02 0.01 0.01 0.01 0.03 0.05 0.05 0.04 0.03
0.05 0.07 0.06 0.04 0.03 0.04 0.11 0.20 0.19 0.13 0.11 0.14 0.18 0.14 0.12 0.11 0.08 0.07 0.06 0.05 0.04 0.05 0.05 0.03 0.02 0.03 0.04 0.03 0.01 0.01 0.02 0.02 0.03 0.02 0.02 0.01 0.01 0.01 0.02 0.05 0.06 0.05 0.05
0.09 0.08 0.08 0.06 0.04 0.03 0.07 0.15 0.17 0.13 0.10 0.10 0.16 0.18 0.14 0.11 0.10 0.10 0.10 0.08 0.06 0.05 0.05 0.05 0.03 0.03 0.04 0.03 0.01 0.01 0.01 0.02 0.02 0.02 0.02 0.01 0.01 0.00 0.02 0.05 0.07 0.07 0.06
0.11 0.10 0.10 0.08 0.05 0.04 0.05 0.11 0.14 0.13 0.11 0.09 0.13 0.16 0.17 0.14 0.11 0.11 0.10 0.08 0.07 0.06 0.06 0.05 0.04 0.03 0.02 0.01 0.01 0.01 0.01 0.02 0.02 0.02 0.02 0.01 0.01 0.00 0.01 0.03 0.06 0.05 0.05
0.10 0.12 0.12 0.09 0.07 0.05 0.06 0.09 0.14 0.13 0.11 0.09 0.11 0.13 0.13 0.14 0.13 0.13 0.11 0.08 0.06 0.05 0.06 0.06 0.04 0.02 0.01 0.01 0.01 0.01 0.01 0.01 0.02 0.01 0.01 0.01 0.01 0.01 0.01 0.02 0.04 0.04 0.03
0.08 0.12 0.15 0.11 0.08 0.06 0.05 0.08 0.12 0.12 0.11 0.10 0.11 0.11 0.11 0.11 0.13 0.15 0.14 0.10 0.08 0.06 0.06 0.05 0.05 0.04 0.02 0.02 0.02 0.01 0.01 0.01 0.02 0.01 0.01 0.01 0.01 0.01 0.01 0.01 0.03 0.03 0.03
0.05 0.08 0.12 0.13 0.11 0.09 0.07 0.07 0.10 0.10 0.10 0.10 0.10 0.10 0.11 0.12 0.11 0.13 0.14 0.12 0.10 0.08 0.08 0.07 0.05 0.05 0.04 0.02 0.02 0.02 0.02 0.02 0.02 0.02 0.01 0.01 0.01 0.01 0.01 0.01 0.02 0.03 0.03
0.03 0.05 0.08 0.11 0.10 0.09 0.08 0.08 0.09 0.10 0.09 0.09 0.09 0.08 0.09 0.12 0.12 0.11 0.14 0.13 0.12 0.11 0.10 0.10 0.07 0.04 0.04 0.04 0.03 0.04 0.03 0.02 0.02 0.02 0.02 0.01 0.01 0.01 0.01 0.01 0.02 0.03 0.04
0.03 0.04 0.06 0.07 0.08 0.08 0.06 0.06 0.08 0.08 0.08 0.08 0.08 0.07 0.07 0.10 0.11 0.11 0.11 0.12 0.12 0.11 0.12 0.13 0.12 0.08 0.05 0.04 0.04 0.04 0.04 0.03 0.02 0.02 0.02 0.01 0.01 0.01 0.00 0.01 0.01 0.02 0.03
0.03 0.04 0.05 0.06 0.06 0.06 0.05 0.04 0.06 0.06 0.05 0.07 0.07 0.07 0.07 0.09 0.11 0.11 0.10 0.10 0.10 0.09 0.09 0.10 0.10 0.11 0.09 0.06 0.05 0.05 0.04 0.03 0.03 0.02 0.02 0.02 0.01 0.01 0.00 0.00 0.01 0.01 0.02
0.02 0.03 0.03 0.04 0.06 0.06 0.05 0.03 0.04 0.05 0.04 0.04 0.05 0.06 0.06 0.07 0.08 0.10 0.11 0.10 0.09 0.08 0.07 0.07 0.07 0.08 0.09 0.09 0.07 0.06 0.06 0.05 0.04 0.03 0.02 0.02 0.02 0.01 0.01 0.00 0.00 0.01 0.01
MSLP
1015.00 1014.44 1013.96 1013.59 1013.37 1013.30 1013.34 1013.45 1013.58 1013.69 1013.76 1013.77 1013.77 1013.77 1013.81 1013.92 1014.09 1014.31 1014.55 1014.78 1014.99 1015.16 1015.30 1015.44 1015.59 1015.77 1015.99 1016.24 1016.49 1016.73 1016.94 1017.11 1017.24 1017.35 1017.43 1017.52 1017.59 1017.66 1017.72 1017.74 1017.73 1017.68 1017.63
1015.22 1014.62 1014.08 1013.66 1013.39 1013.28 1013.30 1013.41 1013.55 1013.68 1013.77 1013.83 1013.86 1013.90 1013.98 1014.12 1014.31 1014.54 1014.79 1015.03 1015.25 1015.43 1015.58 1015.73 1015.89 1016.07 1016.29 1016.52 1016.75 1016.97 1017.17 1017.33 1017.45 1017.56 1017.66 1017.76 1017.86 1017.95 1018.01 1018.05 1018.04 1018.00 1017.95
1015.38 1014.75 1014.18 1013.72 1013.42 1013.28 1013.27 1013.37 1013.51 1013.65 1013.77 1013.85 1013.91 1013.99 1014.09 1014.24 1014.44 1014.68 1014.93 1015.18 1015.39 1015.59 1015.76 1015.93 1016.11 1016.31 1016.53 1016.77 1017.00 1017.22 1017.40 1017.55 1017.68 1017.78 1017.88 1017.99 1018.09 1018.18 1018.26 1018.30 1018.31 1018.29 1018.25
1015.47 1014.84 1014.25 1013.78 1013.46 1013.29 1013.27 1013.34 1013.47 1013.61 1013.72 1013.81 1013.89 1013.98 1014.10 1014.26 1014.47 1014.70 1014.95 1015.19 1015.42 1015.62 1015.81 1016.01 1016.22 1016.45 1016.70 1016.96 1017.21 1017.43 1017.62 1017.77 1017.89 1017.99 1018.09 1018.18 1018.28 1018.37 1018.44 1018.50 1018.52 1018.53 1018.52
1015.51 1014.89 1014.32 1013.85 1013.52 1013.33 1013.28 1013.32 1013.41 1013.51 1013.61 1013.69 1013.78 1013.87 1014.00 1014.17 1014.38 1014.62 1014.86 1015.10 1015.33 1015.55 1015.77 1015.99 1016.24 1016.52 1016.81 1017.10 1017.37 1017.61 1017.81 1017.96 1018.08 1018.17 1018.25 1018.33 1018.41 1018.49 1018.56 1018.62 1018.67 1018.70 1018.73
1015.52 1014.94 1014.39 1013.93 1013.59 1013.39 1013.29 1013.28 1013.31 1013.37 1013.42 1013.48 1013.56 1013.66 1013.80 1013.98 1014.20 1014.45 1014.70 1014.95 1015.19 1015.42 1015.66 1015.92 1016.21 1016.52 1016.85 1017.17 1017.48 1017.74 1017.95 1018.11 1018.22 1018.30 1018.36 1018.42 1018.48 1018.55 1018.61 1018.68 1018.75 1018.82 1018.90
1015.53 1014.98 1014.46 1014.02 1013.68 1013.44 1013.30 1013.21 1013.17 1013.16 1013.16 1013.19 1013.25 1013.36 1013.52 1013.73 1013.98 1014.24 1014.52 1014.78 1015.04 1015.29 1015.56 1015.84 1016.16 1016.50 1016.86 1017.21 1017.53 1017.81 1018.04 1018.20 1018.31 1018.38 1018.43 1018.47 1018.52 1018.57 1018.63 1018.71 1018.80 1018.91 1019.03
1015.55 1015.03 1014.54 1014.12 1013.77 1013.51 1013.30 1013.13 1013.01 1012.91 1012.85 1012.83 1012.89 1013.01 1013.20 1013.45 1013.74 1014.04 1014.35 1014.64 1014.92 1015.20 1015.48 1015.79 1016.13 1016.49 1016.86 1017.23 1017.56 1017.85 1018.08 1018.24 1018.35 1018.42 1018.46 1018.50 1018.53 1018.58 1018.65 1018.73 1018.84 1018.98 1019.14
1015.58 1015.09 1014.63 1014.23 1013.88 1013.58 1013.31 1013.06 1012.84 1012.65 1012.52 1012.47 1012.51 1012.65 1012.87 1013.17 1013.51 1013.86 1014.21 1014.54 1014.85 1015.15 1015.46 1015.79 1016.14 1016.51 1016.89 1017.25 1017.58 1017.86 1018.09 1018.25 1018.36 1018.44 1018.48 1018.52 1018.56 1018.61 1018.68 1018.77 1018.89 1019.05 1019.23
1015.62 1015.16 1014.74 1014.36 1014.01 1013.67 1013.34 1013.01 1012.70 1012.43 1012.23 1012.14 1012.17 1012.31 1012.57 1012.90 1013.29 1013.69 1014.08 1014.45 1014.79 1015.13 1015.46 1015.81 1016.17 1016.55 1016.93 1017.29 1017.61 1017.88 1018.10 1018.26 1018.37 1018.45 1018.51 1018.56 1018.61 1018.67 1018.74 1018.84 1018.97 1019.12 1019.30
1015.65 1015.23 1014.85 1014.49 1014.15 1013.78 1013.40 1013.00 1012.62 1012.27 1012.01 1011.88 1011.88 1012.03 1012.29 1012.65 1013.07 1013.50 1013.93 1014.33 1014.71 1015.08 1015.45 1015.83 1016.22 1016.61 1017.00 1017.35 1017.66 1017.92 1018.13 1018.28 1018.39 1018.48 1018.56 1018.62 1018.69 1018.76 1018.84 1018.94 1019.05 1019.19 1019.36
1015.68 1015.30 1014.96 1014.63 1014.29 1013.92 1013.50 1013.05 1012.61 1012.20 1011.89 1011.71 1011.68 1011.80 1012.05 1012.41 1012.82 1013.27 1013.71 1014.14 1014.56 1014.97 1015.38 1015.81 1016.24 1016.67 1017.07 1017.43 1017.74 1018.00 1018.19 1018.34 1018.46 1018.55 1018.64 1018.72 1018.81 1018.89 1018.97 1019.05 1019.14 1019.26 1019.40
1015.69 1015.35 1015.05 1014.76 1014.44 1014.06 1013.63 1013.15 1012.66 1012.22 1011.86 1011.63 1011.56 1011.63 1011.85 1012.16 1012.55 1012.97 1013.40 1013.84 1014.29 1014.75 1015.22 1015.71 1016.21 1016.69 1017.13 1017.53 1017.86 1018.12 1018.31 1018.46 1018.57 1018.67 1018.77 1018.86 1018.95 1019.03 1019.10 1019.17 1019.24 1019.32 1019.43
1015.69 1015.39 1015.12 1014.86 1014.55 1014.19 1013.75 1013.27 1012.77 1012.30 1011.91 1011.64 1011.51 1011.53 1011.67 1011.92 1012.24 1012.61 1013.02 1013.45 1013.92 1014.43 1014.97 1015.53 1016.11 1016.67 1017.18 1017.63 1017.99 1018.28 1018.48 1018.64 1018.75 1018.85 1018.94 1019.03 1019.11 1019.19 1019.24 1019.29 1019.33 1019.38 1019.45
1015.69 1015.41 1015.17 1014.91 1014.63 1014.28 1013.86 1013.39 1012.89 1012.42 1012.02 1011.72 1011.54 1011.48 1011.54 1011.69 1011.93 1012.22 1012.58 1013.00 1013.48 1014.02 1014.63 1015.28 1015.95 1016.61 1017.21 1017.73 1018.15 1018.48 1018.71 1018.88 1018.99 1019.09 1019.17 1019.24 1019.31 1019.37 1019.40 1019.42 1019.43 1019.45 1019.51
1015.72 1015.43 1015.18 1014.93 1014.65 1014.31 1013.92 1013.48 1013.02 1012.57 1012.17 1011.85 1011.62 1011.49 1011.46 1011.52 1011.65 1011.86 1012.15 1012.53 1013.01 1013.59 1014.26 1014.99 1015.76 1016.51 1017.21 1017.83 1018.33 1018.71 1018.99 1019.18 1019.30 1019.39 1019.46 1019.51 1019.55 1019.58 1019.59 1019.58 1019.57 1019.57 1019.61
1015.77 1015.46 1015.18 1014.91 1014.62 1014.30 1013.94 1013.54 1013.13 1012.72 1012.34 1012.02 1011.76 1011.57 1011.45 1011.40 1011.44 1011.56 1011.78 1012.13 1012.60 1013.20 1013.91 1014.71 1015.57 1016.41 1017.21 1017.92 1018.51 1018.96 1019.29 1019.52 1019.67 1019.76 1019.81 1019.84 1019.86 1019.85 1019.84 1019.81 1019.77 1019.76 1019.79
1015.87 1015.52 1015.19 1014.88 1014.58 1014.27 1013.94 1013.59 1013.24 1012.88 1012.54 1012.22 1011.94 1011.70 1011.51 1011.38 1011.33 1011.37 1011.53 1011.83 1012.28 1012.89 1013.63 1014.48 1015.39 1016.32 1017.20 1018.00 1018.68 1019.21 1019.62 1019.90 1020.08 1020.18 1020.23 1020.24 1020.22 1020.19 1020.14 1020.09 1020.05 1020.03 1020.06
1016.01 1015.60 1015.21 1014.86 1014.54 1014.24 1013.94 1013.65 1013.36 1013.06 1012.76 1012.46 1012.17 1011.89 1011.65 1011.45 1011.33 1011.31 1011.42 1011.68 1012.10 1012.69 1013.44 1014.31 1015.25 1016.23 1017.18 1018.05 1018.81 1019.44 1019.92 1020.27 1020.49 1020.62 1020.68 1020.68 1020.64 1020.58 1020.52 1020.45 1020.39 1020.37 1020.40
1016.15 1015.69 1015.25 1014.87 1014.53 1014.24 1013.99 1013.75 1013.52 1013.28 1013.02 1012.74 1012.45 1012.15 1011.87 1011.63 1011.45 1011.38 1011.45 1011.67 1012.06 1012.62 1013.35 1014.20 1015.15 1016.14 1017.13 1018.06 1018.89 1019.59 1020.16 1020.58 1020.87 1021.04 1021.12 1021.12 1021.08 1021.00 1020.92 1020.84 1020.78 1020.76 1020.78
1016.28 1015.78 1015.31 1014.91 1014.57 1014.30 1014.09 1013.91 1013.74 1013.55 1013.32 1013.06 1012.77 1012.46 1012.15 1011.88 1011.67 1011.57 1011.60 1011.78 1012.13 1012.65 1013.33 1014.15 1015.06 1016.04 1017.03 1017.98 1018.86 1019.64 1020.28 1020.78 1021.14 1021.37 1021.48 1021.51 1021.47 1021.39 1021.30 1021.22 1021.16 1021.14 1021.17
1016.34 1015.84 1015.37 1014.97 1014.65 1014.42 1014.26 1014.13 1014.01 1013.86 1013.67 1013.43 1013.14 1012.81 1012.49 1012.20 1011.97 1011.84 1011.85 1012.00 1012.30 1012.76 1013.37 1014.12 1014.97 1015.89 1016.86 1017.81 1018.72 1019.54 1020.25 1020.83 1021.26 1021.55 1021.72 1021.77 1021.76 1021.69 1021.61 1021.53 1021.49 1021.48 1021.52
1016.31 1015.84 1015.39 1015.02 1014.75 1014.57 1014.46 1014.39 1014.33 1014.22 1014.05 1013.82 1013.53 1013.20 1012.87 1012.56 1012.33 1012.18 1012.16 1012.27 1012.52 1012.92 1013.45 1014.10 1014.86 1015.71 1016.61 1017.53 1018.44 1019.29 1020.05 1020.69 1021.19 1021.55 1021.77 1021.87 1021.89 1021.85 1021.79 1021.74 1021.71 1021.73 1021.79
1016.19 1015.76 1015.37 1015.05 1014.83 1014.72 1014.67 1014.66 1014.64 1014.57 1014.44 1014.22 1013.93 1013.61 1013.27 1012.96 1012.72 1012.56 1012.52 1012.59 1012.78 1013.10 1013.53 1014.08 1014.73 1015.48 1016.30 1017.17 1018.04 1018.89 1019.68 1020.36 1020.92 1021.33 1021.61 1021.77 1021.83 1021.84 1021.82 1021.81 1021.82 1021.87 1021.96
1015.99 1015.62 1015.29 1015.03 1014.87 1014.81 1014.83 1014.88 1014.91 1014.89 1014.78 1014.59 1014.33 1014.01 1013.69 1013.38 1013.14 1012.97 1012.91 1012.94 1013.07 1013.31 1013.64 1014.08 1014.61 1015.24 1015.97 1016.75 1017.58 1018.40 1019.19 1019.89 1020.49 1020.95 1021.28 1021.49 1021.61 1021.67 1021.71 1021.75 1021.82 1021.92 1022.05
1015.77 1015.45 1015.16 1014.95 1014.84 1014.84 1014.90 1015.01 1015.09 1015.12 1015.06 1014.91 1014.68 1014.40 1014.09 1013.81 1013.57 1013.41 1013.32 1013.31 1013.39 1013.54 1013.78 1014.11 1014.53 1015.04 1015.66 1016.36 1017.12 1017.89 1018.65 1019.35 1019.96 1020.45 1020.82 1021.09 1021.26 1021.39 1021.49 1021.60 1021.73 1021.89 1022.06
Thickness
5704 5707 5709 5711 5712 5712 5713 5714 5715 5717 5718 5720 5721 5722 5722 5723 5723 5722 5723 5723 5723 5723 5723 5722 5722 5722 5722 5722 5723 5722 5722 5722 5722 5721 5721 5720 5720 5719 5719 5718 5718 5717 5717
5702 5704 5705 5706 5707 5708 5709 5710 5711 5712 5714 5715 5717 5718 5719 5719 5720 5720 5720 5720 5719 5719 5719 5719 5719 5719 5719 5719 5719 5719 5719 5719 5718 5718 5718 5717 5717 5717 5716 5715 5715 5714 5714
5698 5699 5701 5702 5703 5704 5705 5705 5706 5708 5709 5711 5712 5713 5715 5716 5716 5716 5716 5716 5716 5716 5715 5715 5715 5715 5715 5715 5716 5716 5715 5715 5715 5715 5714 5714 5714 5714 5713 5712 5712 5711 5710
5692 5694 5695 5697 5698 5699 5700 5701 5702 5703 5704 5706 5707 5709 5710 5711 5712 5712 5712 5713 5712 5712 5711 5711 5711 5711 5711 5711 5712 5712 5712 5712 5712 5712 5711 5711 5711 5711 5710 5710 5709 5708 5707
5686 5688 5689 5691 5692 5694 5694 5695 5697 5698 5699 5701 5702 5704 5705 5707 5708 5708 5708 5708 5708 5708 5707 5707 5707 5707 5707 5707 5708 5708 5708 5708 5708 5708 5708 5708 5708 5708 5707 5706 5706 5705 5704
5679 5681 5683 5685 5686 5688 5689 5690 5691 5693 5694 5695 5697 5699 5700 5702 5703 5703 5703 5704 5703 5703 5703 5703 5703 5703 5703 5703 5704 5704 5704 5704 5704 5704 5704 5704 5705 5704 5704 5703 5702 5701 5700
5671 5673 5675 5677 5679 5681 5683 5685 5686 5687 5689 5690 5692 5693 5695 5696 5697 5698 5698 5699 5699 5698 5699 5699 5699 5699 5699 5699 5699 5700 5700 5700 5700 5700 5701 5701 5701 5701 5701 5700 5699 5698 5697
5663 5665 5667 5669 5671 5674 5676 5678 5680 5681 5683 5684 5686 5687 5689 5690 5691 5692 5693 5693 5693 5694 5694 5694 5694 5694 5694 5695 5695 5695 5695 5696 5696 5696 5697 5697 5698 5698 5697 5696 5695 5694 5693
5655 5657 5659 5661 5663 5665 5667 5670 5672 5674 5676 5678 5679 5681 5682 5684 5685 5686 5687 5688 5688 5689 5689 5689 5690 5690 5690 5690 5691 5691 5691 5691 5692 5692 5693 5693 5694 5694 5693 5692 5691 5690 5689
5646 5648 5650 5652 5654 5657 5659 5661 5664 5667 5669 5670 5672 5674 5675 5677 5678 5680 5681 5682 5682 5683 5684 5684 5685 5685 5685 5685 5686 5686 5687 5687 5687 5688 5688 5689 5690 5690 5689 5688 5687 5686 5685
5637 5639 5641 5643 5645 5648 5650 5653 5655 5658 5661 5662 5664 5666 5668 5669 5671 5673 5675 5675 5676 5677 5678 5679 5680 5680 5680 5680 5680 5681 5682 5682 5682 5683 5684 5685 5685 5685 5684 5684 5683 5682 5680
5629 5630 5631 5633 5636 5638 5641 5644 5646 5649 5652 5654 5656 5658 5660 5662 5664 5666 5668 5669 5669 5670 5671 5672 5673 5673 5674 5674 5674 5675 5676 5677 5677 5678 5679 5680 5681 5680 5680 5679 5678 5677 5676
5621 5622 5623 5624 5627 5629 5632 5634 5636 5638 5642 5645 5648 5649 5651 5653 5656 5658 5659 5660 5661 5662 5664 5664 5665 5666 5667 5668 5668 5669 5670 5671 5672 5672 5674 5675 5675 5676 5675 5674 5673 5672 5671
5614 5614 5614 5615 5617 5620 5623 5625 5627 5629 5632 5635 5639 5641 5643 5645 5647 5650 5651 5652 5653 5655 5656 5657 5658 5659 5660 5661 5662 5663 5664 5665 5666 5667 5668 5669 5670 5670 5670 5669 5668 5667 5666
5606 5607 5606 5608 5609 5611 5614 5616 5618 5621 5623 5626 5629 5633 5635 5637 5639 5642 5643 5644 5645 5647 5648 5649 5651 5651 5652 5654 5655 5656 5657 5658 5659 5660 5661 5662 5663 5664 5664 5664 5663 5662 5661
5601 5601 5600 5601 5602 5604 5606 5608 5610 5613 5614 5617 5621 5624 5627 5629 5631 5634 5635 5637 5638 5639 5640 5642 5644 5645 5645 5646 5647 5648 5650 5651 5652 5654 5654 5655 5656 5657 5658 5658 5657 5656 5655
5595 5595 5594 5594 5595 5596 5599 5600 5602 5605 5607 5609 5611 5615 5618 5621 5624 5626 5628 5629 5630 5631 5632 5634 5635 5637 5638 5639 5640 5641 5642 5643 5645 5646 5647 5648 5649 5650 5650 5651 5651 5650 5649
5589 5589 5588 5588 5588 5588 5590 5593 5594 5596 5599 5600 5602 5605 5609 5613 5616 5618 5620 5621 5623 5624 5625 5626 5627 5628 5629 5631 5632 5633 5634 5635 5637 5638 5639 5640 5641 5642 5643 5643 5643 5643 5642
5583 5582 5582 5582 5582 5582 5583 5585 5586 5588 5590 5592 5594 5597 5601 5604 5607 5609 5611 5613 5615 5616 5617 5619 5619 5620 5620 5622 5623 5624 5626 5627 5629 5630 5631 5632 5633 5634 5635 5635 5635 5635 5634
5576 5575 5575 5575 5575 5575 5575 5576 5578 5580 5581 5583 5585 5589 5592 5594 5597 5599 5601 5604 5606 5608 5609 5610 5611 5612 5613 5614 5615 5615 5616 5618 5620 5621 5623 5624 5625 5626 5626 5627 5627 5627 5626
5569 5568 5567 5567 5567 5568 5568 5568 5569 5571 5573 5575 5577 5580 5583 5585 5588 5591 5593 5594 5597 5599 5601 5602 5603 5603 5603 5605 5605 5605 5606 5609 5611 5612 5614 5616 5617 5618 5618 5619 5619 5619 5618
5563 5562 5560 5560 5561 5561 5562 5562 5562 5563 5565 5568 5569 5572 5574 5576 5579 5582 5584 5585 5587 5589 5591 5593 5595 5595 5595 5597 5598 5598 5598 5599 5602 5604 5606 5607 5608 5609 5610 5611 5611 5611 5611
5557 5556 5556 5555 5555 5555 5556 5556 5556 5556 5557 5559 5561 5564 5565 5567 5570 5573 5575 5577 5578 5580 5582 5584 5586 5589 5589 5589 5592 5594 5593 5595 5594 5595 5597 5599 5600 5601 5602 5603 5603 5602 5602
5552 5551 5550 5549 5550 5550 5551 5551 5551 5551 5552 5553 5555 5556 5557 5559 5562 5565 5566 5568 5570 5572 5573 5576 5578 5581 5582 5582 5582 5585 5587 5590 5589 5587 5588 5590 5592 5593 5594 5594 5594 5593 5593
5546 5545 5544 5544 5544 5543 5544 5545 5545 5545 5545 5546 5547 5548 5549 5551 5554 5557 5558 5559 5562 5564 5565 5568 5570 5573 5575 5576 5576 5577 5578 5579 5581 5581 5581 5581 5582 5584 5585 5586 5586 5584 5584
5541 5539 5539 5538 5538 5537 5537 5537 5538 5539 5538 5539 5539 5540 5541 5543 5546 5548 5549 5550 5553 5556 5557 5559 5561 5564 5566 5568 5569 5570 5572 5573 5572 5574 5573 5572 5572 5574 5575 5576 5577 5576 5575